EW5925 Weather Reports


time (UTC)temp
F
wind
direction
speed
knots
gust
knots
rain 1hr
in
rain 24hr
in
rain mn
in
humidity
%
barometer
mb
20260905140648 66 10 0.0 0.9 0.00 0.01 0.00 91 1016.1
20260905140147 66 10 0.0 1.7 0.00 0.01 0.00 92 1016.1
20260905135909 66 10 0.0 1.7 0.00 0.01 0.01 92 1016.1
20260905135147 67 11 0.0 0.9 0.00 0.01 0.01 91 1016.2
20260905134641 67 11 0.0 0.9 0.00 0.01 0.01 91 1016.2
20260905134140 67 11 0.0 0.0 0.00 0.01 0.01 91 1016.1
20260905133637 67 11 0.0 0.0 0.00 0.01 0.01 91 1016.1
20260905133135 67 11 0.0 0.0 0.00 0.01 0.01 91 1016.0
20260905132635 67 11 0.0 0.9 0.00 0.01 0.01 92 1015.9
20260905132354 67 11 0.0 0.9 0.00 0.01 0.01 92 1015.9
20260905131631 67 11 0.0 0.9 0.00 0.01 0.01 92 1015.9
20260905131134 67 11 0.0 0.9 0.00 0.01 0.01 92 1016.0
20260905130610 68 11 0.0 0.0 0.00 0.01 0.01 92 1016.0
20260905130042 68 11 0.0 0.9 0.00 0.01 0.01 92 1016.0
20260905125738 68 11 0.0 0.9 0.00 0.01 0.01 92 1016.0
20260905125216 68 11 0.0 1.7 0.00 0.01 0.01 92 1016.1
20260905124419 68 11 0.0 1.7 0.00 0.01 0.01 92 1016.1
20260905123853 68 11 0.0 1.7 0.00 0.01 0.01 92 1016.1
20260905123328 68 11 0.9 4.3 0.00 0.01 0.01 92 1016.2
20260905122800 68 11 0.9 4.3 0.00 0.01 0.01 92 1016.1
20260905122500 68 23 0.9 5.2 0.00 0.01 0.01 92 1016.1
20260905121704 68 20 0.9 5.2 0.00 0.01 0.01 92 1016.1
20260905121137 68 4 0.9 6.1 0.00 0.01 0.01 92 1016.2
20260905120609 68 347 0.9 4.3 0.00 0.01 0.01 92 1016.3
20260905120316 68 3 0.9 3.5 0.00 0.01 0.01 92 1016.5
20260905115514 68 350 0.9 3.5 0.00 0.01 0.01 92 1016.5
20260905114944 69 355 0.9 3.5 0.00 0.01 0.01 92 1016.5
20260905114429 69 4 0.9 3.5 0.00 0.01 0.01 92 1016.6
20260905113901 69 6 0.9 3.5 0.00 0.01 0.01 92 1016.6
20260905113401 69 3 0.9 4.3 0.00 0.01 0.01 92 1016.6
20260905112834 69 357 0.9 4.3 0.00 0.01 0.01 92 1016.6
20260905112528 69 74 0.9 4.3 0.00 0.01 0.01 91 1016.6
20260905111820 69 4 0.9 4.3 0.00 0.01 0.01 91 1016.7
20260905111249 69 11 0.9 4.3 0.00 0.01 0.01 91 1016.7
20260905110750 69 338 1.7 4.3 0.00 0.01 0.01 91 1016.7
20260905110235 69 345 1.7 5.2 0.00 0.01 0.01 91 1016.7
20260905110159 69 335 1.7 4.3 0.00 0.01 0.01 91 1016.7
20260905110044 69 357 1.7 5.2 0.00 0.01 0.01 91 1016.7
20260905104730 69 7 1.7 4.3 0.00 0.01 0.01 91 1016.6
20260905104231 69 0 0.9 5.2 0.00 0.01 0.01 91 1016.6
20260905103730 69 357 1.7 5.2 0.00 0.01 0.01 91 1016.7
20260905103232 69 22 1.7 4.3 0.00 0.01 0.01 91 1016.6
20260905102955 69 356 1.7 4.3 0.00 0.01 0.01 91 1016.6
20260905102707 69 347 1.7 4.3 0.00 0.01 0.01 91 1016.7
20260905101725 69 12 0.9 4.3 0.00 0.01 0.01 91 1016.6
20260905101705 69 355 0.9 5.2 0.00 0.01 0.01 91 1016.6
20260905100722 69 10 0.9 5.2 0.00 0.01 0.01 91 1016.6
20260905100224 69 12 0.9 4.3 0.00 0.01 0.01 91 1016.6
20260905095716 69 313 0.9 4.3 0.00 0.01 0.01 90 1016.6
20260905095215 69 359 0.9 4.3 0.00 0.01 0.01 90 1016.7
20260905094713 69 349 1.7 4.3 0.00 0.01 0.01 90 1016.6
20260905094441 69 8 1.7 6.1 0.00 0.01 0.01 90 1016.7
20260905093645 69 354 1.7 6.1 0.00 0.01 0.01 90 1016.7
20260905093123 69 341 0.9 6.1 0.00 0.01 0.01 90 1016.7
20260905092625 70 4 0.9 6.1 0.00 0.01 0.01 90 1016.7
20260905092102 70 340 1.7 4.3 0.00 0.01 0.01 90 1016.6
20260905091605 70 347 2.6 7.8 0.00 0.01 0.01 90 1016.5
20260905091040 70 338 1.7 7.8 0.00 0.01 0.01 90 1016.5
20260905090757 70 35 1.7 5.2 0.00 0.01 0.01 89 1016.3
20260905090052 70 30 1.7 6.1 0.00 0.01 0.01 89 1016.3
20260905085536 70 8 1.7 6.1 0.00 0.01 0.01 89 1016.2
20260905085033 70 22 1.7 7.0 0.00 0.01 0.01 88 1016.1
20260905084532 70 358 1.7 7.0 0.00 0.01 0.01 88 1016.1
20260905084034 70 12 1.7 6.1 0.00 0.01 0.01 88 1016.0
20260905083532 70 355 1.7 6.1 0.00 0.01 0.01 88 1016.1
20260905083254 70 349 1.7 5.2 0.00 0.01 0.01 87 1016.0
20260905082533 71 337 1.7 4.3 0.00 0.01 0.01 87 1016.0
20260905082032 71 0 1.7 4.3 0.00 0.01 0.01 86 1016.0
20260905081534 71 337 0.9 3.5 0.00 0.01 0.01 86 1016.0
20260905081019 71 359 1.7 4.3 0.00 0.01 0.01 86 1016.0
20260905080517 71 0 2.6 7.0 0.00 0.01 0.01 85 1016.0
20260905080016 71 348 2.6 7.0 0.00 0.01 0.01 84 1016.0
20260905075517 71 355 1.7 5.2 0.00 0.01 0.01 83 1015.9
20260905075016 71 4 1.7 5.2 0.00 0.01 0.01 83 1015.9
20260905074518 72 10 1.7 6.1 0.00 0.01 0.01 81 1015.8
20260905074016 72 350 1.7 6.1 0.00 0.01 0.01 81 1015.8
20260905073515 72 0 1.7 5.2 0.00 0.01 0.01 80 1015.8
20260905073015 72 354 1.7 5.2 0.00 0.01 0.01 79 1015.8
20260905072515 73 353 1.7 5.2 0.00 0.01 0.01 79 1015.8
20260905072020 73 341 1.7 4.3 0.00 0.01 0.01 78 1015.7
20260905071513 73 338 1.7 5.2 0.00 0.01 0.01 78 1015.7
20260905071014 73 22 1.7 5.2 0.00 0.01 0.01 77 1015.7
20260905070447 74 36 1.7 6.1 0.00 0.01 0.01 77 1015.6
20260905065947 74 342 2.6 6.1 0.00 0.01 0.01 76 1015.6
20260905065658 74 343 2.6 5.2 0.00 0.01 0.01 75 1015.7
20260905065204 74 358 2.6 5.2 0.00 0.01 0.01 75 1015.6
20260905064442 75 0 1.7 5.2 0.00 0.01 0.01 75 1015.6
20260905063940 75 6 1.7 5.2 0.00 0.01 0.01 74 1015.5
20260905063439 75 6 1.7 5.2 0.00 0.01 0.01 73 1015.5
20260905062933 75 311 1.7 4.3 0.00 0.01 0.01 73 1015.4
20260905062432 76 66 1.7 4.3 0.00 0.01 0.01 71 1015.4
20260905062156 76 5 1.7 4.3 0.00 0.01 0.01 71 1015.4
20260905061654 76 34 1.7 4.3 0.00 0.01 0.01 70 1015.4
20260905060925 77 29 1.7 6.1 0.00 0.01 0.01 69 1015.4
20260905060423 78 4 1.7 6.1 0.00 0.01 0.01 68 1015.4
20260905055925 78 0 2.6 5.2 0.00 0.01 0.01 67 1015.4
20260905055413 78 6 1.7 6.1 0.00 0.01 0.01 67 1015.4
20260905054912 78 60 1.7 6.1 0.00 0.01 0.01 65 1015.5
20260905054410 79 17 2.6 7.0 0.00 0.01 0.01 64 1015.5
20260905054135 80 35 3.5 8.7 0.00 0.01 0.01 64 1015.5
20260905053411 80 343 3.5 8.7 0.00 0.01 0.01 63 1015.5
20260905052911 80 331 3.5 7.8 0.00 0.01 0.01 63 1015.5
20260905052409 80 16 2.6 7.0 0.00 0.01 0.01 63 1015.5
20260905051906 81 4 2.6 7.0 0.00 0.01 0.01 63 1015.6
20260905051404 81 358 2.6 5.2 0.00 0.01 0.01 63 1015.7
20260905050903 81 60 1.7 6.1 0.00 0.01 0.01 63 1015.6
20260905050403 81 8 1.7 6.1 0.00 0.01 0.01 63 1015.7
20260905045855 82 58 1.7 5.2 0.00 0.01 0.01 62 1015.7
20260905045353 82 7 2.6 5.2 0.00 0.01 0.01 62 1015.8
20260905044851 82 355 3.5 6.1 0.00 0.01 0.01 60 1015.8
20260905044353 82 356 2.6 6.1 0.00 0.01 0.01 60 1015.8
20260905043840 82 0 2.6 5.2 0.00 0.01 0.01 61 1015.8
20260905043600 82 38 1.7 5.2 0.00 0.01 0.01 61 1015.9
20260905042841 82 14 1.7 5.2 0.00 0.01 0.01 61 1015.9
20260905042600 82 333 1.7 7.8 0.00 0.01 0.01 61 1016.0
20260905041835 82 342 1.7 7.8 0.00 0.01 0.01 60 1016.1
20260905041336 82 43 1.7 7.8 0.00 0.01 0.01 62 1016.2
20260905040831 82 6 1.7 7.8 0.00 0.01 0.01 61 1016.5
20260905040329 82 10 1.7 7.0 0.00 0.01 0.01 60 1016.5
20260905035826 82 55 1.7 6.1 0.00 0.01 0.01 60 1016.5
20260905035811 82 27 2.6 6.1 0.00 0.01 0.01 59 1016.6
20260905034826 82 24 1.7 5.2 0.00 0.01 0.01 59 1016.7
20260905034321 82 314 1.7 6.1 0.00 0.01 0.01 60 1016.7
20260905033819 82 18 1.7 6.1 0.00 0.01 0.01 59 1016.8
20260905033318 81 22 1.7 5.2 0.00 0.01 0.01 59 1016.9
20260905033010 81 38 1.7 5.2 0.00 0.01 0.01 58 1017.1
20260905032901 81 4 2.6 5.2 0.00 0.01 0.01 58 1017.1
20260905031949 81 43 1.7 5.2 0.00 0.01 0.01 60 1017.2
20260905031421 81 60 1.7 6.1 0.00 0.01 0.01 60 1017.3
20260905030635 81 66 1.7 6.1 0.00 0.01 0.01 59 1017.4
20260905030123 81 74 2.6 6.1 0.00 0.01 0.01 62 1017.5
20260905025818 80 2 2.6 7.8 0.00 0.01 0.01 61 1017.6
20260905025053 80 13 2.6 6.1 0.00 0.01 0.01 62 1017.7
20260905024528 80 54 2.6 7.8 0.00 0.01 0.01 61 1017.9
20260905023959 80 330 1.7 7.0 0.00 0.01 0.01 62 1018.1
20260905023701 80 67 2.6 7.0 0.00 0.01 0.01 63 1018.2
20260905022907 79 354 2.6 7.8 0.00 0.01 0.01 64 1018.4
20260905022344 79 347 3.5 7.0 0.00 0.01 0.01 66 1018.5
20260905021816 79 338 3.5 7.8 0.00 0.01 0.01 65 1018.7
20260905021248 79 322 2.6 7.8 0.00 0.01 0.01 66 1018.7
20260905020731 79 356 2.6 7.8 0.00 0.01 0.01 67 1018.8
20260905020245 79 6 2.6 7.8 0.00 0.01 0.01 67 1018.9
20260905015705 79 332 2.6 7.8 0.00 0.01 0.01 67 1019.0
20260905015136 79 79 3.5 9.6 0.00 0.01 0.01 67 1019.1
20260905014609 79 4 3.5 9.6 0.00 0.01 0.01 67 1019.3
20260905014040 79 18 2.6 8.7 0.00 0.01 0.01 67 1019.5
20260905013512 80 312 2.6 7.0 0.00 0.01 0.01 67 1019.5
20260905012944 80 317 2.6 6.1 0.00 0.01 0.01 68 1019.6
20260905012910 80 35 2.6 7.0 0.00 0.01 0.01 68 1019.6
20260905011854 80 358 2.6 7.0 0.00 0.01 0.01 68 1019.8
20260905011327 80 38 2.6 7.8 0.00 0.01 0.01 68 1019.8
20260905010809 80 65 3.5 7.8 0.00 0.01 0.01 68 1019.9
20260905010309 80 9 2.6 7.8 0.00 0.01 0.01 67 1020.1
20260905005807 80 16 1.7 7.0 0.00 0.01 0.01 67 1020.1
20260905005527 80 12 1.7 5.2 0.00 0.01 0.01 68 1020.1
20260905004802 79 62 1.7 4.3 0.00 0.01 0.01 69 1020.3
20260905004300 79 61 1.7 5.2 0.00 0.01 0.01 70 1020.4
20260905003802 78 0 1.7 5.2 0.00 0.01 0.01 70 1020.4
20260905003519 78 355 1.7 5.2 0.00 0.01 0.01 70 1020.6
20260905002800 78 324 1.7 4.3 0.00 0.01 0.01 71 1020.6
20260905002254 77 19 0.9 4.3 0.00 0.01 0.01 72 1020.7
20260905001752 77 358 0.9 3.5 0.00 0.01 0.01 74 1020.8
20260905001250 76 355 0.9 3.5 0.00 0.01 0.01 75 1020.8
20260905001012 76 7 0.9 4.3 0.00 0.01 0.01 75 1021.0
20260905000250 75 325 1.7 4.3 0.00 0.01 0.01 76 1021.2
20260904235750 75 320 1.7 4.3 0.00 0.01 0.01 77 1021.3
20260904235249 74 168 0.9 3.5 0.00 0.01 0.01 78 1021.2
20260904234748 74 314 1.7 4.3 0.00 0.01 0.01 79 1021.3
20260904234511 74 338 1.7 4.3 0.00 0.01 0.01 80 1021.3
20260904233749 73 351 1.7 4.3 0.00 0.01 0.01 82 1021.3
20260904233246 72 359 1.7 4.3 0.00 0.01 0.01 83 1021.3
20260904232746 71 337 0.9 3.5 0.00 0.01 0.01 84 1021.4
20260904232248 71 293 0.9 2.6 0.00 0.01 0.01 86 1021.5
20260904231740 71 293 0.9 2.6 0.00 0.01 0.01 86 1021.6
20260904231238 70 321 0.9 2.6 0.00 0.01 0.01 87 1021.6
20260904230736 70 316 0.9 2.6 0.00 0.01 0.01 88 1021.6
20260904230238 69 314 0.0 1.7 0.00 0.01 0.01 88 1021.6
20260904225721 69 314 0.9 1.7 0.00 0.01 0.01 89 1021.6
20260904225711 68 314 0.9 2.6 0.00 0.01 0.01 90 1021.6
20260904224718 67 314 0.9 2.6 0.00 0.01 0.01 91 1021.6
20260904224218 67 222 0.0 1.7 0.00 0.01 0.01 92 1021.5
20260904223718 66 219 0.0 1.7 0.00 0.01 0.01 93 1021.5
20260904223216 65 218 0.0 3.5 0.00 0.01 0.01 94 1021.5
20260904222715 64 215 0.0 3.5 0.00 0.01 0.01 95 1021.5
20260904222212 64 215 0.9 3.5 0.00 0.01 0.01 95 1021.6
20260904221926 63 215 1.7 3.5 0.00 0.01 0.01 95 1021.6
20260904221206 62 192 1.7 2.6 0.00 0.01 0.01 95 1021.6
20260904221145 62 223 0.9 2.6 0.00 0.01 0.01 95 1021.6
20260904220200 62 223 0.9 3.5 0.00 0.01 0.01 95 1021.6
20260904215700 61 222 0.9 3.5 0.00 0.01 0.01 95 1021.6
20260904215200 61 228 0.9 3.5 0.00 0.01 0.01 95 1021.6
20260904214920 61 180 0.9 3.5 0.00 0.01 0.01 94 1021.5
20260904214146 60 180 0.9 4.3 0.00 0.01 0.01 95 1021.6
20260904213646 60 175 0.9 4.3 0.00 0.01 0.01 95 1021.5
20260904213132 60 160 0.9 2.6 0.00 0.01 0.01 94 1021.4
20260904212632 60 160 0.9 2.6 0.00 0.01 0.01 95 1021.4
20260904212130 59 159 0.0 1.7 0.00 0.01 0.01 94 1021.4
20260904211628 59 159 0.0 1.7 0.00 0.01 0.01 94 1021.3
20260904211126 58 159 0.0 1.7 0.00 0.01 0.01 94 1021.2
20260904210624 58 159 0.0 3.5 0.00 0.01 0.01 94 1021.2
20260904210124 58 159 0.0 3.5 0.00 0.01 0.01 94 1021.2
20260904205850 57 158 0.0 0.9 0.00 0.01 0.01 94 1021.1
20260904205123 57 158 0.0 0.9 0.00 0.01 0.01 93 1021.0
20260904204845 57 158 0.0 0.9 0.00 0.01 0.01 93 1021.0
20260904204349 56 158 0.0 1.7 0.00 0.01 0.01 93 1021.0
20260904203616 56 158 0.0 1.7 0.00 0.01 0.01 93 1021.0
20260904203114 56 158 0.0 0.0 0.00 0.01 0.01 93 1020.9
20260904202612 56 158 0.0 0.9 0.00 0.01 0.01 93 1020.9
20260904202114 56 158 0.0 0.9 0.00 0.01 0.01 93 1020.9
20260904201837 56 158 0.0 1.7 0.00 0.01 0.01 92 1020.8
20260904201104 56 158 0.0 1.7 0.00 0.01 0.01 92 1020.7
20260904200602 56 158 0.0 1.7 0.00 0.01 0.01 92 1020.6
20260904200108 56 158 0.0 1.7 0.00 0.01 0.01 92 1020.5
20260904195825 56 158 0.0 0.9 0.00 0.01 0.01 92 1020.5
20260904195058 56 158 0.0 0.9 0.00 0.01 0.01 92 1020.5
20260904194555 56 158 0.0 0.9 0.00 0.01 0.01 92 1020.4
20260904194052 56 158 0.0 0.9 0.00 0.01 0.01 92 1020.4
20260904193545 56 158 0.0 0.9 0.00 0.01 0.01 92 1020.3
20260904193045 56 158 0.0 0.9 0.00 0.01 0.01 92 1020.3
20260904192543 56 158 0.0 0.9 0.00 0.01 0.01 92 1020.3
20260904192040 56 158 0.0 0.9 0.00 0.01 0.01 91 1020.3
20260904191538 57 158 0.0 0.9 0.00 0.01 0.01 91 1020.2
20260904191036 57 158 0.0 0.9 0.00 0.01 0.01 91 1020.2
20260904190759 57 158 0.0 0.9 0.00 0.02 0.01 91 1020.2
20260904190010 57 158 0.0 0.0 0.00 0.02 0.01 91 1020.2
20260904185449 57 158 0.0 0.9 0.00 0.02 0.01 91 1020.1
20260904184951 57 158 0.0 0.9 0.00 0.02 0.01 91 1020.1
20260904184445 57 158 0.0 0.9 0.00 0.02 0.01 91 1020.1
20260904183945 58 158 0.0 0.9 0.00 0.02 0.01 91 1020.0
20260904183713 58 158 0.0 0.9 0.00 0.02 0.01 91 1020.0
20260904183204 58 158 0.0 0.9 0.00 0.02 0.01 91 1020.0
20260904182444 58 158 0.0 0.9 0.00 0.02 0.01 91 1020.0
20260904182213 58 158 0.0 0.0 0.00 0.02 0.01 91 1020.0
20260904181441 58 158 0.0 0.0 0.01 0.02 0.01 91 1020.1
20260904180940 58 158 0.0 0.0 0.01 0.02 0.01 91 1020.1
20260904180438 58 158 0.0 0.0 0.01 0.02 0.01 91 1020.0
20260904175938 58 158 0.0 0.0 0.01 0.02 0.01 91 1020.0
20260904175433 58 158 0.0 0.0 0.01 0.02 0.01 91 1020.0
20260904174932 59 158 0.0 0.0 0.01 0.02 0.01 91 1020.0
20260904174426 59 158 0.0 0.0 0.01 0.02 0.01 91 1019.9
20260904173924 59 158 0.0 0.9 0.01 0.02 0.01 91 1019.8
20260904173421 59 158 0.0 0.9 0.01 0.02 0.01 91 1019.8
20260904172924 59 158 0.0 0.0 0.01 0.02 0.01 91 1019.9
20260904172358 60 158 0.0 0.0 0.01 0.02 0.01 91 1019.9
20260904171827 60 158 0.0 0.0 0.00 0.01 0.00 91 1019.9
20260904171329 60 158 0.0 0.0 0.00 0.01 0.00 91 1019.9
20260904170823 60 158 0.0 0.0 0.00 0.01 0.00 91 1019.9
20260904170323 60 158 0.0 0.0 0.00 0.01 0.00 90 1019.9
20260904165816 60 158 0.0 0.0 0.00 0.01 0.00 90 1019.9
20260904165318 60 158 0.0 0.0 0.00 0.01 0.00 90 1019.9
20260904164812 60 158 0.0 0.0 0.00 0.01 0.00 90 1019.9
20260904164312 60 158 0.0 0.0 0.00 0.01 0.00 90 1020.0
20260904164030 61 158 0.0 0.0 0.00 0.01 0.00 90 1020.0
20260904163309 61 158 0.0 0.0 0.00 0.01 0.00 90 1020.0
20260904162805 61 158 0.0 0.0 0.00 0.01 0.00 90 1020.0
20260904162531 61 158 0.0 0.0 0.00 0.01 0.00 90 1020.0
20260904161800 61 158 0.0 0.0 0.00 0.01 0.00 90 1019.9
20260904161301 61 158 0.0 0.0 0.00 0.01 0.00 90 1020.0
20260904160755 62 158 0.0 0.0 0.00 0.01 0.00 90 1020.0
20260904160311 62 158 0.0 0.0 0.00 0.01 0.00 90 1020.0
20260904155731 62 158 0.0 0.0 0.00 0.01 0.00 90 1020.0
20260904155211 62 158 0.0 0.0 0.00 0.01 0.00 90 1019.9
20260904154713 62 158 0.0 0.0 0.00 0.01 0.00 90 1020.0
20260904154147 62 158 0.0 0.0 0.00 0.01 0.00 90 1020.0
20260904153621 62 158 0.0 0.9 0.00 0.01 0.00 90 1019.9
20260904153107 63 158 0.0 0.9 0.00 0.01 0.00 90 1019.9
20260904152526 63 158 0.0 0.0 0.00 0.01 0.00 90 1019.9
20260904152001 63 158 0.0 0.9 0.00 0.01 0.00 90 1019.9
20260904151435 63 158 0.0 0.9 0.00 0.01 0.00 90 1020.0
20260904150909 63 158 0.0 0.0 0.00 0.01 0.00 90 1020.0
20260904150412 64 158 0.0 0.0 0.00 0.01 0.00 90 1020.0
20260904145858 64 158 0.0 0.0 0.00 0.01 0.00 90 1020.0
20260904145357 64 158 0.0 0.0 0.00 0.01 0.00 90 1020.0
20260904145110 64 158 0.0 0.0 0.00 0.01 0.00 90 1020.0
20260904144353 64 158 0.0 0.0 0.00 0.01 0.00 91 1020.0
20260904143852 64 158 0.0 0.9 0.00 0.01 0.00 91 1020.0
20260904143349 64 158 0.0 0.9 0.00 0.01 0.00 91 1019.9
20260904143111 64 158 0.0 0.9 0.00 0.01 0.00 91 1019.9
20260904142346 64 158 0.0 2.6 0.00 0.01 0.00 90 1019.9
20260904141843 64 158 0.9 2.6 0.00 0.01 0.00 90 1019.9
20260904141344 65 158 0.9 1.7 0.00 0.01 0.00 90 1019.9